• In Belgien
  • Länderverzeichnis
  • Für 7 Tage
  • Wassertemperatur
  • Satellitenkarten
  • Wetterkarte
  • Widgets
  • user-avatar
    Anmelden

    Stündliche Wetter Darwin

    Heute, 28 Juni, Mittwoch

    Zeit Temperatur Niederschläge Wind Luftdruck Luftfeuchtigkeit
    00:00 +21°C° 0 mm 2 m/S 760 mmHg 87%
    01:00 +21°C° 0 mm 2 m/S 760 mmHg 87%
    02:00 +21°C° 0 mm 2 m/S 760 mmHg 87%
    03:00 +22°C° 0 mm 1 m/S 759 mmHg 87%
    04:00 +21°C° 0 mm 2 m/S 760 mmHg 86%
    05:00 +21°C° 0 mm 2 m/S 760 mmHg 86%
    06:00 +21°C° 0 mm 3 m/S 760 mmHg 86%
    07:00 +24°C° 0 mm 3 m/S 760 mmHg 78%
    08:00 +26°C° 0 mm 3 m/S 760 mmHg 71%
    09:00 +28°C° 0 mm 3 m/S 761 mmHg 60%
    10:00 +30°C° 0 mm 3 m/S 760 mmHg 55%
    11:00 +33°C° 0 mm 3 m/S 760 mmHg 49%
    12:00 +34°C° 0 mm 2 m/S 760 mmHg 44%
    13:00 +35°C° 0 mm 3 m/S 759 mmHg 42%
    14:00 +35°C° 0 mm 3 m/S 759 mmHg 40%
    15:00 +35°C° 0 mm 2 m/S 759 mmHg 44%
    16:00 +32°C° 0 mm 2 m/S 759 mmHg 51%
    17:00 +30°C° 0 mm 2 m/S 759 mmHg 58%
    18:00 +29°C° 0 mm 2 m/S 759 mmHg 65%
    19:00 +28°C° 0 mm 2 m/S 759 mmHg 70%
    20:00 +27°C° 0 mm 2 m/S 759 mmHg 74%
    21:00 +26°C° 0 mm 2 m/S 760 mmHg 78%
    22:00 +26°C° 0 mm 2 m/S 760 mmHg 80%
    23:00 +25°C° 0 mm 2 m/S 760 mmHg 81%

    Morgen, 29 Juni, Donnerstag

    Zeit Temperatur Niederschläge Wind Luftdruck Luftfeuchtigkeit
    00:00 +25°C° 0 mm 3 m/S 760 mmHg 82%
    01:00 +24°C° 0 mm 3 m/S 760 mmHg 80%
    02:00 +24°C° 0 mm 3 m/S 760 mmHg 78%
    03:00 +24°C° 0 mm 3 m/S 760 mmHg 76%
    04:00 +24°C° 0 mm 3 m/S 760 mmHg 77%
    05:00 +24°C° 0 mm 3 m/S 760 mmHg 77%
    06:00 +22°C° 0 mm 3 m/S 760 mmHg 78%
    07:00 +25°C° 0 mm 4 m/S 760 mmHg 72%
    08:00 +27°C° 0 mm 4 m/S 760 mmHg 65%
    09:00 +28°C° 0 mm 4 m/S 761 mmHg 59%
    10:00 +30°C° 0 mm 4 m/S 760 mmHg 51%
    11:00 +33°C° 0 mm 4 m/S 760 mmHg 44%
    12:00 +35°C° 0 mm 4 m/S 760 mmHg 37%
    13:00 +35°C° 0 mm 4 m/S 759 mmHg 35%
    14:00 +35°C° 0 mm 4 m/S 758 mmHg 34%
    15:00 +36°C° 0 mm 4 m/S 758 mmHg 33%
    16:00 +33°C° 0 mm 3 m/S 758 mmHg 41%
    17:00 +30°C° 0 mm 3 m/S 758 mmHg 48%
    18:00 +28°C° 0 mm 2 m/S 758 mmHg 56%
    19:00 +27°C° 0 mm 2 m/S 759 mmHg 58%
    20:00 +27°C° 0 mm 2 m/S 759 mmHg 59%
    21:00 +26°C° 0 mm 2 m/S 760 mmHg 60%
    22:00 +27°C° 0 mm 3 m/S 760 mmHg 57%
    23:00 +28°C° 0 mm 3 m/S 760 mmHg 54%

    übermorgen, 30 Juni, Freitag

    Zeit Temperatur Niederschläge Wind Luftdruck Luftfeuchtigkeit
    00:00 +29°C° 0 mm 4 m/S 760 mmHg 51%
    01:00 +28°C° 0 mm 5 m/S 760 mmHg 52%
    02:00 +27°C° 0 mm 6 m/S 760 mmHg 54%
    03:00 +26°C° 0 mm 6 m/S 760 mmHg 55%
    04:00 +26°C° 0 mm 7 m/S 760 mmHg 56%
    05:00 +24°C° 0 mm 7 m/S 760 mmHg 58%
    06:00 +23°C° 0 mm 7 m/S 760 mmHg 59%
    07:00 +24°C° 0 mm 7 m/S 760 mmHg 54%
    08:00 +26°C° 0 mm 8 m/S 761 mmHg 49%
    09:00 +27°C° 0 mm 8 m/S 761 mmHg 44%
    10:00 +28°C° 0 mm 7 m/S 761 mmHg 40%
    11:00 +30°C° 0 mm 7 m/S 761 mmHg 37%
    12:00 +33°C° 0 mm 6 m/S 760 mmHg 33%
    13:00 +33°C° 0 mm 5 m/S 759 mmHg 32%
    14:00 +34°C° 0 mm 5 m/S 759 mmHg 31%
    15:00 +35°C° 0 mm 4 m/S 758 mmHg 31%
    16:00 +33°C° 0 mm 3 m/S 758 mmHg 35%
    17:00 +30°C° 0 mm 3 m/S 758 mmHg 39%
    18:00 +29°C° 0 mm 2 m/S 759 mmHg 43%
    19:00 +28°C° 0 mm 3 m/S 759 mmHg 44%
    20:00 +27°C° 0 mm 3 m/S 760 mmHg 45%
    21:00 +26°C° 0 mm 4 m/S 760 mmHg 47%
    22:00 +26°C° 0 mm 5 m/S 760 mmHg 47%
    23:00 +25°C° 0 mm 5 m/S 760 mmHg 48%

    1 Juli, Samstag

    Zeit Temperatur Niederschläge Wind Luftdruck Luftfeuchtigkeit
    00:00 +24°C° 0 mm 6 m/S 760 mmHg 48%
    01:00 +23°C° 0 mm 6 m/S 760 mmHg 50%
    02:00 +23°C° 0 mm 6 m/S 760 mmHg 51%
    03:00 +22°C° 0 mm 6 m/S 760 mmHg 53%
    04:00 +22°C° 0 mm 6 m/S 760 mmHg 54%
    05:00 +22°C° 0 mm 6 m/S 760 mmHg 55%
    06:00 +21°C° 0 mm 6 m/S 760 mmHg 55%
    07:00 +23°C° 0 mm 6 m/S 760 mmHg 53%
    08:00 +24°C° 0 mm 6 m/S 760 mmHg 51%
    09:00 +26°C° 0 mm 6 m/S 761 mmHg 49%
    10:00 +28°C° 0 mm 6 m/S 760 mmHg 45%
    11:00 +30°C° 0 mm 5 m/S 760 mmHg 42%
    12:00 +33°C° 0 mm 5 m/S 760 mmHg 39%
    13:00 +34°C° 0 mm 4 m/S 759 mmHg 38%
    14:00 +35°C° 0 mm 4 m/S 758 mmHg 37%
    15:00 +36°C° 0 mm 3 m/S 758 mmHg 36%
    16:00 +34°C° 0 mm 3 m/S 758 mmHg 43%
    17:00 +30°C° 0 mm 3 m/S 758 mmHg 50%
    18:00 +28°C° 0 mm 2 m/S 758 mmHg 58%
    19:00 +27°C° 0 mm 2 m/S 759 mmHg 62%
    20:00 +26°C° 0 mm 2 m/S 759 mmHg 67%
    21:00 +25°C° 0 mm 2 m/S 760 mmHg 72%
    22:00 +25°C° 0 mm 2 m/S 760 mmHg 70%
    23:00 +26°C° 0 mm 2 m/S 760 mmHg 68%

    2 Juli, Sonntag

    Zeit Temperatur Niederschläge Wind Luftdruck Luftfeuchtigkeit
    00:00 +26°C° 0 mm 2 m/S 760 mmHg 66%
    01:00 +25°C° 0 mm 2 m/S 759 mmHg 68%
    02:00 +25°C° 0 mm 3 m/S 759 mmHg 70%
    03:00 +24°C° 0 mm 3 m/S 759 mmHg 72%
    04:00 +24°C° 0 mm 3 m/S 759 mmHg 76%
    05:00 +23°C° 0 mm 4 m/S 759 mmHg 79%
    06:00 +22°C° 0 mm 4 m/S 760 mmHg 83%
    07:00 +25°C° 0 mm 4 m/S 760 mmHg 78%
    08:00 +26°C° 0 mm 4 m/S 760 mmHg 73%
    09:00 +28°C° 0 mm 5 m/S 761 mmHg 68%
    10:00 +30°C° 0 mm 4 m/S 760 mmHg 59%
    11:00 +33°C° 0 mm 4 m/S 760 mmHg 50%
    12:00 +35°C° 0 mm 4 m/S 760 mmHg 41%
    13:00 +36°C° 0 mm 4 m/S 759 mmHg 40%
    14:00 +36°C° 0 mm 3 m/S 758 mmHg 40%
    15:00 +36°C° 0 mm 3 m/S 757 mmHg 39%
    16:00 +34°C° 0 mm 3 m/S 758 mmHg 47%
    17:00 +33°C° 0 mm 3 m/S 758 mmHg 54%
    18:00 +30°C° 0 mm 2 m/S 758 mmHg 61%
    19:00 +28°C° 0 mm 2 m/S 759 mmHg 69%
    20:00 +27°C° 0 mm 2 m/S 759 mmHg 76%
    21:00 +26°C° 0 mm 2 m/S 760 mmHg 84%
    22:00 +25°C° 0,1 mm 2 m/S 760 mmHg 84%
    23:00 +25°C° 0,1 mm 2 m/S 760 mmHg 84%

    3 Juli, Montag

    Zeit Temperatur Niederschläge Wind Luftdruck Luftfeuchtigkeit
    00:00 +25°C° 0,1 mm 2 m/S 760 mmHg 84%
    01:00 +26°C° 0,4 mm 2 m/S 759 mmHg 81%
    02:00 +26°C° 0,4 mm 2 m/S 759 mmHg 79%
    03:00 +26°C° 0,4 mm 2 m/S 759 mmHg 77%
    04:00 +26°C° 0,2 mm 3 m/S 759 mmHg 77%
    05:00 +26°C° 0,2 mm 3 m/S 759 mmHg 78%
    06:00 +25°C° 0,2 mm 3 m/S 760 mmHg 78%
    07:00 +26°C° 0 mm 4 m/S 760 mmHg 75%
    08:00 +27°C° 0 mm 4 m/S 760 mmHg 72%
    09:00 +28°C° 0 mm 5 m/S 761 mmHg 69%
    10:00 +30°C° 0 mm 4 m/S 760 mmHg 61%
    11:00 +33°C° 0 mm 4 m/S 760 mmHg 52%
    12:00 +35°C° 0 mm 4 m/S 760 mmHg 44%
    13:00 +35°C° 0 mm 3 m/S 759 mmHg 42%
    14:00 +36°C° 0 mm 3 m/S 758 mmHg 40%
    15:00 +36°C° 0 mm 3 m/S 758 mmHg 38%
    16:00 +34°C° 0 mm 3 m/S 758 mmHg 44%
    17:00 +33°C° 0 mm 3 m/S 759 mmHg 51%
    18:00 +30°C° 0 mm 3 m/S 759 mmHg 57%
    19:00 +28°C° 0 mm 2 m/S 759 mmHg 65%
    20:00 +27°C° 0 mm 1 m/S 760 mmHg 72%
    21:00 +26°C° 0 mm 1 m/S 760 mmHg 79%
    22:00 +26°C° 0 mm 1 m/S 760 mmHg 81%
    23:00 +25°C° 0 mm 1 m/S 760 mmHg 82%
    Mehr zeigen